Inverness, United Kingdom

3:08 AM BST on April 25, 2018 (GMT +0100)
Inverness

Weather History for EGPE - June, 2013

Change the Weather History Date:

Thursday, June 27, 2013

  Actual Average Record
Temperature  
Mean Temperature 55 °F -  
Max Temperature 64 °F 63 °F 71 °F (2005)
Min Temperature 46 °F 50 °F 42 °F (2006)
Degree Days  
Heating Degree Days 10    
Growing Degree Days 5 (Base 50)    
Moisture  
Dew Point 51 °F    
Average Humidity 85    
Maximum Humidity 94    
Minimum Humidity 68    
Precipitation  
Precipitation 0.00 in - - ()
Sea Level Pressure  
Sea Level Pressure 30.24 in    
Wind  
Wind Speed 5 mph ()    
Max Wind Speed 9 mph    
Max Gust Speed -    
Visibility 6.0 miles    
Events Rain    
Averages and records for this station are not official NWS values.
T = Trace of Precipitation, MM = Missing Value Source: Averaged Metar Reports

Daily Weather History Graph

Daily Weather History Graph

Search for Another Location

Airport or City:

Astronomy

Jun. 27, 2013 Rise Set
Actual Time 4:19 AM BST 10:18 PM BST
Civil Twilight 3:08 AM BST 11:29 PM BST
Nautical Twilight 1:51 AM BST 12:46 AM BST
Astronomical Twilight Sun does not set Sun does not set
Moon 11:51 PM BST (6/27) 10:12 AM BST (6/27)
Length of Visible Light 20h 21m
Length of Day
17h 59m
Waning Gibbous, 78% of the Moon is Illuminated
Jun 27
Waning Gibbous
Jun 30
Last Quarter
Jul 8
New
Jul 16
First Quarter
Jul 22
Full

Hourly Weather History & Observations

Time (BST) Temp. Dew Point Humidity Pressure Visibility Wind Dir Wind Speed Gust Speed Precip Events Conditions
12:20 AM 46.4 °F 44.6 °F 93% 30.42 in 6.2 mi Calm Calm - N/A   Unknown
12:50 AM 48.2 °F 44.6 °F 87% 30.42 in 6.2 mi South 2.3 mph - N/A   Unknown
1:20 AM 48.2 °F 44.6 °F 87% 30.39 in 6.2 mi Variable 3.5 mph - N/A   Unknown
1:50 AM 48.2 °F 46.4 °F 93% 30.39 in 6.2 mi SW 3.5 mph - N/A   Unknown
2:20 AM 48.2 °F 46.4 °F 93% 30.39 in 6.2 mi SW 2.3 mph - N/A   Unknown
2:50 AM 48.2 °F 46.4 °F 93% 30.39 in - South 4.6 mph - N/A   Clear
3:20 AM 48.2 °F 44.6 °F 87% 30.36 in - SSW 4.6 mph - N/A   Clear
3:50 AM 48.2 °F 46.4 °F 93% 30.36 in - SW 4.6 mph - N/A   Clear
4:20 AM 48.2 °F 46.4 °F 93% 30.36 in - SW 5.8 mph - N/A   Clear
4:50 AM 50.0 °F 46.4 °F 87% 30.33 in - SW 8.1 mph - N/A   Clear
5:20 AM 50.0 °F 46.4 °F 87% 30.33 in - SW 3.5 mph - N/A   Clear
5:50 AM 50.0 °F 46.4 °F 87% 30.30 in - SW 4.6 mph - N/A   Clear
6:20 AM 50.0 °F 46.4 °F 87% 30.30 in - WSW 6.9 mph - N/A   Clear
6:50 AM 50.0 °F 46.4 °F 87% 30.30 in 6.2 mi WSW 9.2 mph - N/A   Partly Cloudy
7:20 AM 51.8 °F 48.2 °F 88% 30.30 in 6.2 mi WSW 9.2 mph - N/A   Partly Cloudy
7:50 AM 51.8 °F 48.2 °F 88% 30.30 in 6.2 mi SW 9.2 mph - N/A Rain Light Rain Showers
8:20 AM 51.8 °F 48.2 °F 88% 30.27 in 6.2 mi WSW 9.2 mph - N/A   Partly Cloudy
8:50 AM 53.6 °F 50.0 °F 88% 30.27 in 6.2 mi SW 9.2 mph - N/A   Partly Cloudy
9:20 AM 53.6 °F 50.0 °F 88% 30.27 in 6.2 mi WSW 9.2 mph - N/A   Partly Cloudy
9:50 AM 55.4 °F 51.8 °F 88% 30.27 in 6.2 mi WSW 8.1 mph - N/A Rain Light Rain
10:20 AM 55.4 °F 51.8 °F 88% 30.27 in 6.2 mi WSW 9.2 mph - N/A Rain Light Rain
10:50 AM 53.6 °F 51.8 °F 94% 30.24 in 5.0 mi WSW 9.2 mph - N/A Rain Light Rain
11:20 AM 53.6 °F 51.8 °F 94% 30.24 in 2.5 mi WSW 6.9 mph - N/A Rain Rain
11:50 AM 55.4 °F 53.6 °F 94% 30.24 in 3.7 mi West 4.6 mph - N/A   Overcast
12:20 PM 57.2 °F 53.6 °F 88% 30.24 in 6.2 mi WSW 4.6 mph - N/A   Mostly Cloudy
12:50 PM 59.0 °F 53.6 °F 82% 30.24 in 6.2 mi WSW 4.6 mph - N/A   Mostly Cloudy
1:20 PM 59.0 °F 51.8 °F 77% 30.21 in 6.2 mi West 6.9 mph - N/A   Scattered Clouds
1:50 PM 60.8 °F 51.8 °F 72% 30.21 in 6.2 mi West 4.6 mph - N/A   Scattered Clouds
2:20 PM 62.6 °F 53.6 °F 72% 30.21 in 6.2 mi WSW 4.6 mph - N/A   Scattered Clouds
2:50 PM 62.6 °F 53.6 °F 72% 30.18 in 6.2 mi Variable 3.5 mph - N/A   Scattered Clouds
3:20 PM 62.6 °F 53.6 °F 72% 30.18 in 6.2 mi WSW 4.6 mph - N/A   Mostly Cloudy
3:50 PM 62.6 °F 53.6 °F 72% 30.18 in 6.2 mi West 5.8 mph - N/A   Mostly Cloudy
4:20 PM 64.4 °F 53.6 °F 68% 30.18 in 6.2 mi SW 4.6 mph - N/A   Scattered Clouds
4:50 PM 64.4 °F 53.6 °F 68% 30.15 in 6.2 mi West 5.8 mph - N/A   Scattered Clouds
5:20 PM 64.4 °F 53.6 °F 68% 30.15 in 6.2 mi West 6.9 mph - N/A   Scattered Clouds
5:50 PM 62.6 °F 55.4 °F 77% 30.15 in 6.2 mi WSW 5.8 mph - N/A   Scattered Clouds
6:20 PM 60.8 °F 55.4 °F 82% 30.15 in 6.2 mi WSW 8.1 mph - N/A   Scattered Clouds
6:50 PM 60.8 °F 57.2 °F 88% 30.12 in 6.2 mi SSW 6.9 mph - N/A   Mostly Cloudy
7:20 PM 60.8 °F 57.2 °F 88% 30.12 in 6.2 mi South 3.5 mph - N/A   Mostly Cloudy
7:50 PM 60.8 °F 57.2 °F 88% 30.12 in 6.2 mi Variable 3.5 mph - N/A   Mostly Cloudy
8:20 PM 60.8 °F 57.2 °F 88% 30.12 in 6.2 mi West 4.6 mph - N/A   Mostly Cloudy
8:50 PM 60.8 °F 55.4 °F 82% 30.12 in 6.2 mi West 6.9 mph - N/A   Mostly Cloudy
9:20 PM 57.2 °F 55.4 °F 94% 30.12 in 6.2 mi North 5.8 mph - N/A   Mostly Cloudy
9:50 PM 57.2 °F 55.4 °F 94% 30.12 in 6.2 mi Calm Calm - N/A   Overcast
10:20 PM 59.0 °F 53.6 °F 82% 30.12 in 6.2 mi WSW 6.9 mph - N/A   Overcast
10:50 PM 57.2 °F 53.6 °F 88% 30.12 in 6.2 mi WSW 4.6 mph - N/A   Scattered Clouds
11:20 PM 57.2 °F 53.6 °F 88% 30.09 in 6.2 mi WSW 6.9 mph - N/A   Mostly Cloudy
11:50 PM 57.2 °F 53.6 °F 88% 30.09 in 6.2 mi West 8.1 mph - N/A   Mostly Cloudy